Time,TemperatureF,DewpointF,PressureIn,WindDirection,WindDirectionDegrees,WindSpeedMPH,WindSpeedGustMPH,Humidity,HourlyPrecipIn,Conditions,Clouds,dailyrainin,SoftwareType,DateUTC
2013-02-28 00:00:00,22.7,10.5,30.19,WNW,282,0.0,0.0,59,0.00,,---,0.00,VWS V14.00,2013-02-28 07:00:00,
2013-02-28 00:05:00,23.2,11.0,30.19,WNW,282,0.0,3.0,59,0.00,,---,0.00,VWS V14.00,2013-02-28 07:05:00,
2013-02-28 00:10:00,23.0,9.2,30.19,WNW,286,3.0,5.0,55,0.00,,---,0.00,VWS V14.00,2013-02-28 07:10:00,
2013-02-28 00:15:00,23.5,7.6,30.20,WNW,288,8.0,9.0,50,0.00,,---,0.00,VWS V14.00,2013-02-28 07:15:00,
2013-02-28 00:20:00,22.8,7.0,30.19,WNW,286,10.0,13.0,50,0.00,,---,0.00,VWS V14.00,2013-02-28 07:20:00,
2013-02-28 00:25:00,22.6,8.5,30.20,WNW,283,10.0,13.0,54,0.00,,---,0.00,VWS V14.00,2013-02-28 07:25:00,
2013-02-28 00:30:00,22.6,9.3,30.20,WNW,288,10.0,13.0,56,0.00,,---,0.00,VWS V14.00,2013-02-28 07:30:00,
2013-02-28 00:35:00,23.0,8.4,30.20,WNW,296,0.0,0.0,53,0.00,,---,0.00,VWS V14.00,2013-02-28 07:35:00,
2013-02-28 00:40:00,22.7,8.1,30.20,WNW,296,0.0,1.0,53,0.00,,---,0.00,VWS V14.00,2013-02-28 07:40:00,
2013-02-28 00:45:00,23.5,8.1,30.21,WNW,296,1.0,1.0,51,0.00,,---,0.00,VWS V14.00,2013-02-28 07:45:00,
2013-02-28 00:50:00,23.8,7.4,30.21,WNW,296,0.0,3.0,49,0.00,,---,0.00,VWS V14.00,2013-02-28 07:50:00,
2013-02-28 00:55:00,23.7,6.4,30.21,WNW,296,0.0,0.0,47,0.00,,---,0.00,VWS V14.00,2013-02-28 07:55:00,
2013-02-28 01:00:00,23.7,6.4,30.21,WNW,296,0.0,0.0,47,0.00,,---,0.00,VWS V14.00,2013-02-28 08:00:00,
2013-02-28 01:06:00,24.0,6.7,30.22,WNW,299,0.0,0.0,47,0.00,,---,0.00,VWS V14.00,2013-02-28 08:06:00,
2013-02-28 01:11:00,22.9,6.6,30.21,WNW,299,0.0,0.0,49,0.00,,---,0.00,VWS V14.00,2013-02-28 08:11:00,
2013-02-28 01:16:00,22.5,10.0,30.21,WNW,282,5.0,8.0,58,0.00,,---,0.00,VWS V14.00,2013-02-28 08:16:00,
2013-02-28 01:21:00,23.4,8.8,30.22,WNW,283,0.0,8.0,53,0.00,,---,0.00,VWS V14.00,2013-02-28 08:21:00,
2013-02-28 01:26:00,23.6,9.0,30.22,West,279,0.0,6.0,53,0.00,,---,0.00,VWS V14.00,2013-02-28 08:26:00,
2013-02-28 01:31:00,23.3,7.0,30.22,West,263,4.0,6.0,49,0.00,,---,0.00,VWS V14.00,2013-02-28 08:31:00,
2013-02-28 01:36:00,24.7,7.3,30.22,WNW,284,3.0,6.0,47,0.00,,---,0.00,VWS V14.00,2013-02-28 08:36:00,
2013-02-28 01:41:00,24.4,7.5,30.22,West,271,6.0,6.0,48,0.00,,---,0.00,VWS V14.00,2013-02-28 08:41:00,
2013-02-28 01:47:00,25.1,5.8,30.22,West,270,3.0,5.0,43,0.00,,---,0.00,VWS V14.00,2013-02-28 08:47:00,
2013-02-28 01:52:00,24.2,5.4,30.22,West,270,4.0,5.0,44,0.00,,---,0.00,VWS V14.00,2013-02-28 08:52:00,
2013-02-28 01:57:00,24.7,6.4,30.22,West,274,5.0,5.0,45,0.00,,---,0.00,VWS V14.00,2013-02-28 08:57:00,
2013-02-28 02:02:00,24.9,4.5,30.21,WSW,252,3.0,7.0,41,0.00,,---,0.00,VWS V14.00,2013-02-28 09:02:00,
2013-02-28 02:07:00,26.0,3.3,30.21,WSW,253,6.0,6.0,37,0.00,,---,0.00,VWS V14.00,2013-02-28 09:07:00,
2013-02-28 02:12:00,26.5,3.2,30.21,WSW,257,4.0,6.0,36,0.00,,---,0.00,VWS V14.00,2013-02-28 09:12:00,
2013-02-28 02:17:00,27.0,3.0,30.21,West,263,5.0,7.0,35,0.00,,---,0.00,VWS V14.00,2013-02-28 09:17:00,
2013-02-28 02:23:00,27.0,2.4,30.20,WSW,244,8.0,8.0,34,0.00,,---,0.00,VWS V14.00,2013-02-28 09:23:00,
2013-02-28 02:28:00,27.1,3.1,30.20,WSW,244,5.0,6.0,35,0.00,,---,0.00,VWS V14.00,2013-02-28 09:28:00,
2013-02-28 02:33:00,26.7,2.7,30.20,SW,236,3.0,6.0,35,0.00,,---,0.00,VWS V14.00,2013-02-28 09:33:00,
2013-02-28 02:38:00,26.3,2.4,30.20,SW,214,4.0,5.0,35,0.00,,---,0.00,VWS V14.00,2013-02-28 09:38:00,
2013-02-28 02:43:00,26.3,2.4,30.20,WSW,240,3.0,8.0,35,0.00,,---,0.00,VWS V14.00,2013-02-28 09:43:00,
2013-02-28 02:48:00,26.3,2.4,30.20,WSW,238,5.0,6.0,35,0.00,,---,0.00,VWS V14.00,2013-02-28 09:48:00,
2013-02-28 02:54:00,26.6,2.7,30.19,West,260,7.0,9.0,35,0.00,,---,0.00,VWS V14.00,2013-02-28 09:54:00,
2013-02-28 02:59:00,26.9,2.9,30.19,WSW,254,6.0,11.0,35,0.00,,---,0.00,VWS V14.00,2013-02-28 09:59:00,
2013-02-28 03:04:00,27.0,2.4,30.19,West,262,8.0,11.0,34,0.00,,---,0.00,VWS V14.00,2013-02-28 10:04:00,
2013-02-28 03:09:00,27.2,2.6,30.18,West,263,8.0,11.0,34,0.00,,---,0.00,VWS V14.00,2013-02-28 10:09:00,
2013-02-28 03:14:00,27.2,2.6,30.18,WSW,252,7.0,11.0,34,0.00,,---,0.00,VWS V14.00,2013-02-28 10:14:00,
2013-02-28 03:19:00,27.4,2.7,30.18,WSW,245,6.0,9.0,34,0.00,,---,0.00,VWS V14.00,2013-02-28 10:19:00,
2013-02-28 03:24:00,27.6,2.9,30.18,WSW,248,6.0,9.0,34,0.00,,---,0.00,VWS V14.00,2013-02-28 10:24:00,
2013-02-28 03:29:00,27.6,2.9,30.18,WSW,242,4.0,7.0,34,0.00,,---,0.00,VWS V14.00,2013-02-28 10:29:00,
2013-02-28 03:35:00,27.9,3.2,30.17,WSW,252,4.0,7.0,34,0.00,,---,0.00,VWS V14.00,2013-02-28 10:35:00,
2013-02-28 03:40:00,28.3,2.9,30.17,SW,225,0.0,6.0,33,0.00,,---,0.00,VWS V14.00,2013-02-28 10:40:00,
2013-02-28 03:45:00,28.5,2.4,30.17,SW,225,0.0,6.0,32,0.00,,---,0.00,VWS V14.00,2013-02-28 10:45:00,
2013-02-28 03:50:00,28.5,2.4,30.17,SW,225,0.0,2.0,32,0.00,,---,0.00,VWS V14.00,2013-02-28 10:50:00,
2013-02-28 03:55:00,28.1,2.7,30.17,SW,229,4.0,4.0,33,0.00,,---,0.00,VWS V14.00,2013-02-28 10:55:00,
2013-02-28 04:00:00,27.6,2.9,30.17,SW,229,4.0,4.0,34,0.00,,---,0.00,VWS V14.00,2013-02-28 11:00:00,
2013-02-28 04:05:00,27.7,3.6,30.17,WSW,252,2.0,4.0,35,0.00,,---,0.00,VWS V14.00,2013-02-28 11:05:00,
2013-02-28 04:10:00,27.8,3.1,30.17,WNW,285,4.0,6.0,34,0.00,,---,0.00,VWS V14.00,2013-02-28 11:10:00,
2013-02-28 04:15:00,27.9,3.2,30.17,WNW,294,2.0,2.0,34,0.00,,---,0.00,VWS V14.00,2013-02-28 11:15:00,
2013-02-28 04:20:00,28.3,2.9,30.17,West,276,3.0,7.0,33,0.00,,---,0.00,VWS V14.00,2013-02-28 11:20:00,
2013-02-28 04:26:00,28.5,3.7,30.17,West,278,3.0,4.0,34,0.00,,---,0.00,VWS V14.00,2013-02-28 11:26:00,
2013-02-28 04:31:00,28.8,3.3,30.16,West,266,2.0,5.0,33,0.00,,---,0.00,VWS V14.00,2013-02-28 11:31:00,
2013-02-28 04:36:00,29.1,2.9,30.17,WSW,258,0.0,1.0,32,0.00,,---,0.00,VWS V14.00,2013-02-28 11:36:00,
2013-02-28 04:41:00,29.3,3.1,30.17,West,263,5.0,5.0,32,0.00,,---,0.00,VWS V14.00,2013-02-28 11:41:00,
2013-02-28 04:46:00,29.6,2.7,30.16,WSW,246,0.0,2.0,31,0.00,,---,0.00,VWS V14.00,2013-02-28 11:46:00,
2013-02-28 04:51:00,29.7,2.8,30.16,WNW,289,3.0,7.0,31,0.00,,---,0.00,VWS V14.00,2013-02-28 11:51:00,
2013-02-28 04:56:00,29.5,3.3,30.17,NW,304,5.0,6.0,32,0.00,,---,0.00,VWS V14.00,2013-02-28 11:56:00,
2013-02-28 05:01:00,28.6,3.8,30.17,WNW,292,5.0,7.0,34,0.00,,---,0.00,VWS V14.00,2013-02-28 12:01:00,
2013-02-28 05:06:00,28.8,3.3,30.17,WNW,291,4.0,5.0,33,0.00,,---,0.00,VWS V14.00,2013-02-28 12:06:00,
2013-02-28 05:11:00,29.0,2.8,30.17,WNW,291,2.0,5.0,32,0.00,,---,0.00,VWS V14.00,2013-02-28 12:11:00,
2013-02-28 05:16:00,28.1,3.4,30.18,NNE,19,5.0,6.0,34,0.00,,---,0.00,VWS V14.00,2013-02-28 12:16:00,
2013-02-28 05:21:00,24.6,3.7,30.18,NNW,347,7.0,7.0,40,0.00,,---,0.00,VWS V14.00,2013-02-28 12:21:00,
2013-02-28 05:26:00,24.1,3.8,30.18,North,351,3.0,5.0,41,0.00,,---,0.00,VWS V14.00,2013-02-28 12:26:00,
2013-02-28 05:31:00,24.3,4.0,30.17,NNW,348,3.0,6.0,41,0.00,,---,0.00,VWS V14.00,2013-02-28 12:31:00,
2013-02-28 05:36:00,22.2,3.1,30.17,North,360,2.0,3.0,43,0.00,,---,0.00,VWS V14.00,2013-02-28 12:36:00,
2013-02-28 05:41:00,23.2,4.0,30.18,NNW,339,0.0,8.0,43,0.00,,---,0.00,VWS V14.00,2013-02-28 12:41:00,
2013-02-28 05:47:00,22.4,3.3,30.18,NNW,329,5.0,6.0,43,0.00,,---,0.00,VWS V14.00,2013-02-28 12:47:00,
2013-02-28 05:52:00,21.5,3.5,30.18,NW,319,3.0,7.0,45,0.00,,---,0.00,VWS V14.00,2013-02-28 12:52:00,
2013-02-28 05:57:00,21.4,3.8,30.18,North,360,2.0,5.0,46,0.00,,---,0.00,VWS V14.00,2013-02-28 12:57:00,
2013-02-28 06:02:00,20.6,3.6,30.19,North,360,0.0,5.0,47,0.00,,---,0.00,VWS V14.00,2013-02-28 13:02:00,
2013-02-28 06:07:00,20.2,3.7,30.19,NNW,346,4.0,5.0,48,0.00,,---,0.00,VWS V14.00,2013-02-28 13:07:00,
2013-02-28 06:12:00,20.0,3.9,30.19,North,350,5.0,6.0,49,0.00,,---,0.00,VWS V14.00,2013-02-28 13:12:00,
2013-02-28 06:17:00,19.9,3.8,30.20,NNW,347,5.0,7.0,49,0.00,,---,0.00,VWS V14.00,2013-02-28 13:17:00,
2013-02-28 06:22:00,20.8,4.7,30.20,NNW,346,6.0,8.0,49,0.00,,---,0.00,VWS V14.00,2013-02-28 13:22:00,
2013-02-28 06:27:00,20.7,3.7,30.20,North,355,6.0,7.0,47,0.00,,---,0.00,VWS V14.00,2013-02-28 13:27:00,
2013-02-28 06:33:00,21.1,4.5,30.20,NNW,335,6.0,8.0,48,0.00,,---,0.00,VWS V14.00,2013-02-28 13:33:00,
2013-02-28 06:38:00,21.3,4.2,30.20,North,350,7.0,8.0,47,0.00,,---,0.00,VWS V14.00,2013-02-28 13:38:00,
2013-02-28 06:43:00,22.1,4.0,30.20,NNW,331,7.0,9.0,45,0.00,,---,0.00,VWS V14.00,2013-02-28 13:43:00,
2013-02-28 06:48:00,22.9,4.3,30.20,North,355,4.0,9.0,44,0.00,,---,0.00,VWS V14.00,2013-02-28 13:48:00,
2013-02-28 06:53:00,23.3,4.1,30.20,NW,310,5.0,9.0,43,0.00,,---,0.00,VWS V14.00,2013-02-28 13:53:00,
2013-02-28 06:58:00,23.8,4.1,30.21,NW,315,8.0,9.0,42,0.00,,---,0.00,VWS V14.00,2013-02-28 13:58:00,
2013-02-28 07:03:00,24.1,4.3,30.20,North,9,3.0,9.0,42,0.00,,---,0.00,VWS V14.00,2013-02-28 14:03:00,
2013-02-28 07:08:00,24.5,4.2,30.20,NNW,338,5.0,8.0,41,0.00,,---,0.00,VWS V14.00,2013-02-28 14:08:00,
2013-02-28 07:13:00,24.5,4.7,30.20,NNW,339,0.0,8.0,42,0.00,,---,0.00,VWS V14.00,2013-02-28 14:13:00,
2013-02-28 07:18:00,24.6,4.8,30.20,NNW,339,0.0,3.0,42,0.00,,---,0.00,VWS V14.00,2013-02-28 14:18:00,
2013-02-28 07:23:00,24.6,5.8,30.20,NNW,342,2.0,4.0,44,0.00,,---,0.00,VWS V14.00,2013-02-28 14:23:00,
2013-02-28 07:28:00,25.2,6.8,30.20,NNW,342,0.0,1.0,45,0.00,,---,0.00,VWS V14.00,2013-02-28 14:28:00,
2013-02-28 07:33:00,26.1,6.2,30.20,WNW,301,6.0,8.0,42,0.00,,---,0.00,VWS V14.00,2013-02-28 14:33:00,
2013-02-28 07:38:00,27.4,5.2,30.20,WNW,297,4.0,7.0,38,0.00,,---,0.00,VWS V14.00,2013-02-28 14:38:00,
2013-02-28 07:43:00,28.6,6.8,30.20,WNW,298,0.0,7.0,39,0.00,,---,0.00,VWS V14.00,2013-02-28 14:43:00,
2013-02-28 07:49:00,29.1,6.1,30.20,WNW,298,0.0,0.0,37,0.00,,---,0.00,VWS V14.00,2013-02-28 14:49:00,
2013-02-28 07:54:00,29.8,6.7,30.20,WNW,298,0.0,0.0,37,0.00,,---,0.00,VWS V14.00,2013-02-28 14:54:00,
2013-02-28 07:59:00,30.2,7.1,30.20,WNW,298,0.0,1.0,37,0.00,,---,0.00,VWS V14.00,2013-02-28 14:59:00,
2013-02-28 08:04:00,30.0,6.9,30.20,WNW,298,0.0,1.0,37,0.00,,---,0.00,VWS V14.00,2013-02-28 15:04:00,
2013-02-28 08:09:00,30.2,7.7,30.20,North,5,4.0,5.0,38,0.00,,---,0.00,VWS V14.00,2013-02-28 15:09:00,
2013-02-28 08:14:00,30.3,8.3,30.20,North,5,0.0,5.0,39,0.00,,---,0.00,VWS V14.00,2013-02-28 15:14:00,
2013-02-28 08:19:00,30.1,8.7,30.20,North,5,0.0,1.0,40,0.00,,---,0.00,VWS V14.00,2013-02-28 15:19:00,
2013-02-28 08:24:00,31.5,7.6,30.20,NNE,20,0.0,1.0,36,0.00,,---,0.00,VWS V14.00,2013-02-28 15:24:00,
2013-02-28 08:29:00,32.3,8.4,30.20,NNE,20,0.0,1.0,36,0.00,,---,0.00,VWS V14.00,2013-02-28 15:29:00,
2013-02-28 08:34:00,32.3,8.4,30.20,NNE,19,0.0,4.0,36,0.00,,---,0.00,VWS V14.00,2013-02-28 15:34:00,
2013-02-28 08:39:00,32.7,8.7,30.20,NNE,19,3.0,3.0,36,0.00,,---,0.00,VWS V14.00,2013-02-28 15:39:00,
2013-02-28 08:45:00,32.3,7.7,30.20,NNE,19,0.0,3.0,35,0.00,,---,0.00,VWS V14.00,2013-02-28 15:45:00,
2013-02-28 08:50:00,33.6,6.9,30.20,NNE,19,0.0,0.0,32,0.00,,---,0.00,VWS V14.00,2013-02-28 15:50:00,
2013-02-28 08:55:00,33.8,7.8,30.20,SSW,203,1.0,6.0,33,0.00,,---,0.00,VWS V14.00,2013-02-28 15:55:00,
2013-02-28 09:00:00,33.4,8.1,30.20,SSW,192,2.0,4.0,34,0.00,,---,0.00,VWS V14.00,2013-02-28 16:00:00,
2013-02-28 09:05:00,32.8,8.2,30.20,South,191,5.0,6.0,35,0.00,,---,0.00,VWS V14.00,2013-02-28 16:05:00,
2013-02-28 09:11:00,32.3,7.1,30.20,South,184,0.0,7.0,34,0.00,,---,0.00,VWS V14.00,2013-02-28 16:11:00,
2013-02-28 09:16:00,32.4,8.4,30.20,SSE,156,5.0,7.0,36,0.00,,---,0.00,VWS V14.00,2013-02-28 16:16:00,
2013-02-28 09:21:00,32.1,7.6,30.20,SSE,148,2.0,7.0,35,0.00,,---,0.00,VWS V14.00,2013-02-28 16:21:00,
2013-02-28 09:26:00,32.3,7.7,30.20,SSE,148,0.0,0.0,35,0.00,,---,0.00,VWS V14.00,2013-02-28 16:26:00,
2013-02-28 09:31:00,32.6,6.7,30.20,SSE,148,0.0,1.0,33,0.00,,---,0.00,VWS V14.00,2013-02-28 16:31:00,
2013-02-28 09:36:00,32.9,8.3,30.20,SSE,148,2.0,4.0,35,0.00,,---,0.00,VWS V14.00,2013-02-28 16:36:00,
2013-02-28 09:41:00,33.7,7.7,30.20,SSE,148,2.0,4.0,33,0.00,,---,0.00,VWS V14.00,2013-02-28 16:41:00,
2013-02-28 09:47:00,34.1,6.6,30.20,SSE,153,4.0,5.0,31,0.00,,---,0.00,VWS V14.00,2013-02-28 16:47:00,
2013-02-28 09:52:00,33.9,7.8,30.20,SSE,155,0.0,5.0,33,0.00,,---,0.00,VWS V14.00,2013-02-28 16:52:00,
2013-02-28 09:57:00,34.0,7.9,30.20,SSE,156,1.0,2.0,33,0.00,,---,0.00,VWS V14.00,2013-02-28 16:57:00,
2013-02-28 10:02:00,33.7,9.0,30.20,South,171,5.0,6.0,35,0.00,,---,0.00,VWS V14.00,2013-02-28 17:02:00,
2013-02-28 10:07:00,33.6,8.2,30.20,SSE,167,2.0,7.0,34,0.00,,---,0.00,VWS V14.00,2013-02-28 17:07:00,
2013-02-28 10:12:00,33.7,9.0,30.20,South,175,2.0,7.0,35,0.00,,---,0.00,VWS V14.00,2013-02-28 17:12:00,
2013-02-28 10:17:00,33.7,7.0,30.20,South,171,4.0,7.0,32,0.00,,---,0.00,VWS V14.00,2013-02-28 17:17:00,
2013-02-28 10:22:00,33.2,8.5,30.20,SSE,159,6.0,7.0,35,0.00,,---,0.00,VWS V14.00,2013-02-28 17:22:00,
2013-02-28 10:28:00,33.0,11.9,30.21,ESE,115,1.0,6.0,41,0.00,,---,0.00,VWS V14.00,2013-02-28 17:28:00,
2013-02-28 10:33:00,32.9,10.7,30.21,ESE,117,2.0,6.0,39,0.00,,---,0.00,VWS V14.00,2013-02-28 17:33:00,
2013-02-28 10:38:00,32.6,10.4,30.20,ESE,119,2.0,4.0,39,0.00,,---,0.00,VWS V14.00,2013-02-28 17:38:00,
2013-02-28 10:43:00,32.6,9.8,30.20,SSE,153,2.0,6.0,38,0.00,,---,0.00,VWS V14.00,2013-02-28 17:43:00,
2013-02-28 10:48:00,32.9,7.6,30.20,SSE,158,6.0,7.0,34,0.00,,---,0.00,VWS V14.00,2013-02-28 17:48:00,
2013-02-28 10:53:00,32.8,10.6,30.20,SSE,158,4.0,7.0,39,0.00,,---,0.00,VWS V14.00,2013-02-28 17:53:00,
2013-02-28 10:58:00,33.2,10.4,30.20,SSE,158,2.0,6.0,38,0.00,,---,0.00,VWS V14.00,2013-02-28 17:58:00,
2013-02-28 11:03:00,33.0,8.4,30.20,SSE,158,4.0,6.0,35,0.00,,---,0.00,VWS V14.00,2013-02-28 18:03:00,
2013-02-28 11:08:00,32.9,11.2,30.20,ESE,121,4.0,6.0,40,0.00,,---,0.00,VWS V14.00,2013-02-28 18:08:00,
2013-02-28 11:13:00,33.2,7.9,30.19,SSE,160,5.0,7.0,34,0.00,,---,0.00,VWS V14.00,2013-02-28 18:13:00,
2013-02-28 11:19:00,33.3,8.0,30.19,SSE,163,4.0,6.0,34,0.00,,---,0.00,VWS V14.00,2013-02-28 18:19:00,
2013-02-28 11:24:00,33.5,8.1,30.19,South,180,4.0,9.0,34,0.00,,---,0.00,VWS V14.00,2013-02-28 18:24:00,
2013-02-28 11:29:00,33.8,7.1,30.19,SSE,168,4.0,7.0,32,0.00,,---,0.00,VWS V14.00,2013-02-28 18:29:00,
2013-02-28 11:34:00,34.1,7.3,30.19,SSE,167,7.0,9.0,32,0.00,,---,0.00,VWS V14.00,2013-02-28 18:34:00,
2013-02-28 11:39:00,34.3,6.8,30.19,SSE,165,5.0,8.0,31,0.00,,---,0.00,VWS V14.00,2013-02-28 18:39:00,
2013-02-28 11:44:00,34.1,6.6,30.19,South,173,6.0,9.0,31,0.00,,---,0.00,VWS V14.00,2013-02-28 18:44:00,
2013-02-28 11:49:00,34.1,7.3,30.19,South,171,6.0,8.0,32,0.00,,---,0.00,VWS V14.00,2013-02-28 18:49:00,
2013-02-28 11:54:00,34.1,7.3,30.19,South,173,0.0,10.0,32,0.00,,---,0.00,VWS V14.00,2013-02-28 18:54:00,
2013-02-28 11:59:00,34.1,8.0,30.18,SSE,167,6.0,9.0,33,0.00,,---,0.00,VWS V14.00,2013-02-28 18:59:00,
2013-02-28 12:05:00,34.3,9.5,30.18,South,169,7.0,9.0,35,0.00,,---,0.00,VWS V14.00,2013-02-28 19:05:00,
2013-02-28 12:10:00,34.6,9.8,30.18,SSE,167,7.0,9.0,35,0.00,,---,0.00,VWS V14.00,2013-02-28 19:10:00,
2013-02-28 12:15:00,34.7,8.6,30.18,South,179,5.0,9.0,33,0.00,,---,0.00,VWS V14.00,2013-02-28 19:15:00,
2013-02-28 12:20:00,34.7,8.6,30.17,SSE,165,6.0,10.0,33,0.00,,---,0.00,VWS V14.00,2013-02-28 19:20:00,
2013-02-28 12:25:00,34.8,8.6,30.17,South,176,5.0,10.0,33,0.00,,---,0.00,VWS V14.00,2013-02-28 19:25:00,
2013-02-28 12:30:00,34.8,8.0,30.17,South,178,4.0,9.0,32,0.00,,---,0.00,VWS V14.00,2013-02-28 19:30:00,
2013-02-28 12:35:00,34.8,7.3,30.17,SSE,162,6.0,11.0,31,0.00,,---,0.00,VWS V14.00,2013-02-28 19:35:00,
2013-02-28 12:40:00,35.1,8.2,30.16,SE,137,7.0,8.0,32,0.00,,---,0.00,VWS V14.00,2013-02-28 19:40:00,
2013-02-28 12:45:00,34.8,8.6,30.16,SSE,161,5.0,5.0,33,0.00,,---,0.00,VWS V14.00,2013-02-28 19:45:00,
2013-02-28 12:50:00,35.0,10.8,30.16,SSE,165,5.0,7.0,36,0.00,,---,0.00,VWS V14.00,2013-02-28 19:50:00,
2013-02-28 12:55:00,35.2,10.3,30.15,SSE,168,6.0,8.0,35,0.00,,---,0.00,VWS V14.00,2013-02-28 19:55:00,
2013-02-28 13:00:00,35.1,8.9,30.15,SSE,165,7.0,8.0,33,0.00,,---,0.00,VWS V14.00,2013-02-28 20:00:00,
2013-02-28 13:06:00,35.1,7.5,30.15,SSE,165,2.0,5.0,31,0.00,,---,0.00,VWS V14.00,2013-02-28 20:06:00,
2013-02-28 13:11:00,35.3,9.8,30.15,SSE,167,4.0,7.0,34,0.00,,---,0.00,VWS V14.00,2013-02-28 20:11:00,
2013-02-28 13:16:00,35.3,9.1,30.14,South,171,5.0,5.0,33,0.00,,---,0.00,VWS V14.00,2013-02-28 20:16:00,
2013-02-28 13:21:00,35.1,10.2,30.14,South,179,6.0,9.0,35,0.00,,---,0.00,VWS V14.00,2013-02-28 20:21:00,
2013-02-28 13:26:00,35.0,10.1,30.14,South,181,0.0,2.0,35,0.00,,---,0.00,VWS V14.00,2013-02-28 20:26:00,
2013-02-28 13:31:00,35.2,10.3,30.14,South,177,0.0,6.0,35,0.00,,---,0.00,VWS V14.00,2013-02-28 20:31:00,
2013-02-28 13:36:00,35.2,10.3,30.13,South,178,1.0,6.0,35,0.00,,---,0.00,VWS V14.00,2013-02-28 20:36:00,
2013-02-28 13:41:00,35.3,10.4,30.13,South,181,3.0,7.0,35,0.00,,---,0.00,VWS V14.00,2013-02-28 20:41:00,
2013-02-28 13:46:00,35.5,10.6,30.13,SSW,195,4.0,6.0,35,0.00,,---,0.00,VWS V14.00,2013-02-28 20:46:00,
2013-02-28 13:51:00,35.8,11.5,30.13,South,184,3.0,8.0,36,0.00,,---,0.00,VWS V14.00,2013-02-28 20:51:00,
2013-02-28 13:56:00,35.7,11.4,30.13,SSE,163,5.0,7.0,36,0.00,,---,0.00,VWS V14.00,2013-02-28 20:56:00,
2013-02-28 14:01:00,35.7,11.4,30.13,South,170,5.0,7.0,36,0.00,,---,0.00,VWS V14.00,2013-02-28 21:01:00,
2013-02-28 14:07:00,35.7,12.6,30.12,South,172,6.0,8.0,38,0.00,,---,0.00,VWS V14.00,2013-02-28 21:07:00,
2013-02-28 14:12:00,35.6,12.5,30.12,South,184,5.0,8.0,38,0.00,,---,0.00,VWS V14.00,2013-02-28 21:12:00,
2013-02-28 14:17:00,35.6,11.9,30.12,South,172,5.0,7.0,37,0.00,,---,0.00,VWS V14.00,2013-02-28 21:17:00,
2013-02-28 14:22:00,35.6,12.5,30.12,SSE,153,5.0,7.0,38,0.00,,---,0.00,VWS V14.00,2013-02-28 21:22:00,
2013-02-28 14:27:00,35.7,12.6,30.12,SSE,168,6.0,6.0,38,0.00,,---,0.00,VWS V14.00,2013-02-28 21:27:00,
2013-02-28 14:32:00,35.7,11.4,30.12,South,188,4.0,7.0,36,0.00,,---,0.00,VWS V14.00,2013-02-28 21:32:00,
2013-02-28 14:37:00,35.8,11.5,30.12,South,180,0.0,3.0,36,0.00,,---,0.00,VWS V14.00,2013-02-28 21:37:00,
2013-02-28 14:42:00,35.9,11.6,30.12,South,180,1.0,4.0,36,0.00,,---,0.00,VWS V14.00,2013-02-28 21:42:00,
2013-02-28 14:47:00,35.9,12.2,30.12,South,181,0.0,4.0,37,0.00,,---,0.00,VWS V14.00,2013-02-28 21:47:00,
2013-02-28 14:52:00,35.9,12.2,30.12,South,181,1.0,4.0,37,0.00,,---,0.00,VWS V14.00,2013-02-28 21:52:00,
2013-02-28 14:57:00,36.0,12.9,30.12,South,181,0.0,0.0,38,0.00,,---,0.00,VWS V14.00,2013-02-28 21:57:00,
2013-02-28 15:02:00,36.0,11.6,30.12,South,181,1.0,4.0,36,0.00,,---,0.00,VWS V14.00,2013-02-28 22:02:00,
2013-02-28 15:07:00,35.9,12.8,30.12,South,181,0.0,2.0,38,0.00,,---,0.00,VWS V14.00,2013-02-28 22:07:00,
2013-02-28 15:13:00,35.8,13.3,30.12,South,181,4.0,4.0,39,0.00,,---,0.00,VWS V14.00,2013-02-28 22:13:00,
2013-02-28 15:18:00,35.7,12.0,30.12,South,190,2.0,6.0,37,0.00,,---,0.00,VWS V14.00,2013-02-28 22:18:00,
2013-02-28 15:23:00,35.9,13.9,30.12,South,191,4.0,6.0,40,0.00,,---,0.00,VWS V14.00,2013-02-28 22:23:00,
2013-02-28 15:28:00,36.0,13.5,30.12,SSW,195,4.0,4.0,39,0.00,,---,0.00,VWS V14.00,2013-02-28 22:28:00,
2013-02-28 15:33:00,36.2,13.6,30.12,SSW,196,4.0,5.0,39,0.00,,---,0.00,VWS V14.00,2013-02-28 22:33:00,
2013-02-28 15:38:00,36.4,13.8,30.13,SSW,206,3.0,5.0,39,0.00,,---,0.00,VWS V14.00,2013-02-28 22:38:00,
2013-02-28 15:43:00,36.6,14.6,30.12,SSW,199,2.0,5.0,40,0.00,,---,0.00,VWS V14.00,2013-02-28 22:43:00,
2013-02-28 15:48:00,36.6,14.0,30.12,SSW,202,3.0,5.0,39,0.00,,---,0.00,VWS V14.00,2013-02-28 22:48:00,
2013-02-28 15:53:00,36.5,14.5,30.12,SSW,193,3.0,5.0,40,0.00,,---,0.00,VWS V14.00,2013-02-28 22:53:00,
2013-02-28 15:58:00,36.3,14.3,30.12,South,190,0.0,4.0,40,0.00,,---,0.00,VWS V14.00,2013-02-28 22:58:00,
2013-02-28 16:03:00,36.2,15.3,30.13,South,190,2.0,5.0,42,0.00,,---,0.00,VWS V14.00,2013-02-28 23:03:00,
2013-02-28 16:09:00,36.1,16.8,30.13,South,190,1.0,3.0,45,0.00,,---,0.00,VWS V14.00,2013-02-28 23:09:00,
2013-02-28 16:14:00,36.0,16.7,30.12,South,190,3.0,4.0,45,0.00,,---,0.00,VWS V14.00,2013-02-28 23:14:00,
2013-02-28 16:19:00,35.8,18.0,30.12,South,190,1.0,4.0,48,0.00,,---,0.00,VWS V14.00,2013-02-28 23:19:00,
2013-02-28 16:24:00,35.7,18.0,30.11,South,190,3.0,4.0,48,0.00,,---,0.00,VWS V14.00,2013-02-28 23:24:00,
2013-02-28 16:29:00,35.7,17.5,30.11,South,190,3.0,4.0,47,0.00,,---,0.00,VWS V14.00,2013-02-28 23:29:00,
2013-02-28 16:34:00,35.7,17.0,30.11,South,190,2.0,4.0,46,0.00,,---,0.00,VWS V14.00,2013-02-28 23:34:00,
2013-02-28 16:39:00,35.8,16.5,30.12,South,190,2.0,5.0,45,0.00,,---,0.00,VWS V14.00,2013-02-28 23:39:00,
2013-02-28 16:44:00,35.9,16.6,30.12,South,190,0.0,5.0,45,0.00,,---,0.00,VWS V14.00,2013-02-28 23:44:00,
2013-02-28 16:49:00,35.9,16.6,30.12,SSW,196,3.0,5.0,45,0.00,,---,0.00,VWS V14.00,2013-02-28 23:49:00,
2013-02-28 16:54:00,35.9,16.1,30.12,SSW,196,2.0,5.0,44,0.00,,---,0.00,VWS V14.00,2013-02-28 23:54:00,
2013-02-28 16:59:00,35.8,17.1,30.12,SSW,196,0.0,4.0,46,0.00,,---,0.00,VWS V14.00,2013-02-28 23:59:00,
2013-02-28 17:04:00,35.8,16.5,30.12,SSW,197,1.0,4.0,45,0.00,,---,0.00,VWS V14.00,2013-03-01 00:04:00,
2013-02-28 17:10:00,35.7,18.0,30.12,SSW,197,0.0,0.0,48,0.00,,---,0.00,VWS V14.00,2013-03-01 00:10:00,
2013-02-28 17:15:00,35.5,17.3,30.13,SSW,197,0.0,0.0,47,0.00,,---,0.00,VWS V14.00,2013-03-01 00:15:00,
2013-02-28 17:20:00,35.5,17.3,30.12,SSW,197,2.0,3.0,47,0.00,,---,0.00,VWS V14.00,2013-03-01 00:20:00,
2013-02-28 17:25:00,35.4,17.7,30.12,SSW,200,2.0,5.0,48,0.00,,---,0.00,VWS V14.00,2013-03-01 00:25:00,
2013-02-28 17:30:00,35.3,18.5,30.12,SSW,200,0.0,6.0,50,0.00,,---,0.00,VWS V14.00,2013-03-01 00:30:00,
2013-02-28 17:35:00,35.1,17.4,30.13,SSW,202,0.0,6.0,48,0.00,,---,0.00,VWS V14.00,2013-03-01 00:35:00,
2013-02-28 17:40:00,35.3,16.1,30.13,SSW,202,0.0,4.0,45,0.00,,---,0.00,VWS V14.00,2013-03-01 00:40:00,
2013-02-28 17:45:00,35.4,16.7,30.13,SSW,202,2.0,2.0,46,0.00,,---,0.00,VWS V14.00,2013-03-01 00:45:00,
2013-02-28 17:50:00,35.1,17.4,30.13,SSW,202,1.0,6.0,48,0.00,,---,0.00,VWS V14.00,2013-03-01 00:50:00,
2013-02-28 17:55:00,34.8,16.6,30.13,SSW,208,6.0,6.0,47,0.00,,---,0.00,VWS V14.00,2013-03-01 00:55:00,
2013-02-28 18:01:00,34.9,16.7,30.14,SW,225,4.0,6.0,47,0.00,,---,0.00,VWS V14.00,2013-03-01 01:01:00,
2013-02-28 18:06:00,34.7,17.0,30.13,SW,225,2.0,3.0,48,0.00,,---,0.00,VWS V14.00,2013-03-01 01:06:00,
2013-02-28 18:11:00,34.5,16.4,30.13,SSW,212,3.0,4.0,47,0.00,,---,0.00,VWS V14.00,2013-03-01 01:11:00,
2013-02-28 18:16:00,34.7,15.0,30.14,SW,236,3.0,5.0,44,0.00,,---,0.00,VWS V14.00,2013-03-01 01:16:00,
2013-02-28 18:21:00,34.8,15.1,30.14,SW,236,3.0,5.0,44,0.00,,---,0.00,VWS V14.00,2013-03-01 01:21:00,
2013-02-28 18:26:00,34.8,14.6,30.14,WSW,238,0.0,4.0,43,0.00,,---,0.00,VWS V14.00,2013-03-01 01:26:00,
2013-02-28 18:31:00,35.1,13.8,30.14,WSW,238,0.0,4.0,41,0.00,,---,0.00,VWS V14.00,2013-03-01 01:31:00,
2013-02-28 18:36:00,35.4,13.5,30.14,WSW,241,0.0,0.0,40,0.00,,---,0.00,VWS V14.00,2013-03-01 01:36:00,
2013-02-28 18:41:00,35.6,13.1,30.14,NW,306,0.0,3.0,39,0.00,,---,0.00,VWS V14.00,2013-03-01 01:41:00,
2013-02-28 18:46:00,35.6,13.1,30.14,NW,309,0.0,0.0,39,0.00,,---,0.00,VWS V14.00,2013-03-01 01:46:00,
2013-02-28 18:51:00,35.7,13.2,30.14,NW,309,0.0,3.0,39,0.00,,---,0.00,VWS V14.00,2013-03-01 01:51:00,
2013-02-28 18:56:00,35.7,13.2,30.14,North,5,0.0,1.0,39,0.00,,---,0.00,VWS V14.00,2013-03-01 01:56:00,
2013-02-28 19:01:00,35.8,12.7,30.14,ESE,103,0.0,4.0,38,0.00,,---,0.00,VWS V14.00,2013-03-01 02:01:00,
2013-02-28 19:06:00,36.1,12.4,30.15,NNE,32,2.0,6.0,37,0.00,,---,0.00,VWS V14.00,2013-03-01 02:06:00,
2013-02-28 19:12:00,36.0,13.5,30.15,NNE,30,2.0,8.0,39,0.00,,---,0.00,VWS V14.00,2013-03-01 02:12:00,
2013-02-28 19:17:00,34.6,16.9,30.16,North,360,9.0,10.0,48,0.00,,---,0.00,VWS V14.00,2013-03-01 02:17:00,
2013-02-28 19:22:00,33.0,16.4,30.16,North,350,7.0,11.0,50,0.00,,---,0.00,VWS V14.00,2013-03-01 02:22:00,
2013-02-28 19:27:00,32.6,16.0,30.16,North,350,3.0,6.0,50,0.00,,---,0.00,VWS V14.00,2013-03-01 02:27:00,
2013-02-28 19:32:00,31.7,16.5,30.16,NNW,347,4.0,6.0,53,0.00,,---,0.00,VWS V14.00,2013-03-01 02:32:00,
2013-02-28 19:37:00,32.3,16.7,30.17,North,9,3.0,7.0,52,0.00,,---,0.00,VWS V14.00,2013-03-01 02:37:00,
2013-02-28 19:42:00,31.7,16.5,30.16,North,355,3.0,7.0,53,0.00,,---,0.00,VWS V14.00,2013-03-01 02:42:00,
2013-02-28 19:47:00,32.4,14.9,30.16,North,355,0.0,2.0,48,0.00,,---,0.00,VWS V14.00,2013-03-01 02:47:00,
2013-02-28 19:52:00,32.9,14.4,30.17,North,355,0.0,2.0,46,0.00,,---,0.00,VWS V14.00,2013-03-01 02:52:00,
2013-02-28 19:57:00,33.5,13.4,30.17,North,355,2.0,2.0,43,0.00,,---,0.00,VWS V14.00,2013-03-01 02:57:00,
2013-02-28 20:03:00,34.2,14.6,30.16,SE,137,0.0,4.0,44,0.00,,---,0.00,VWS V14.00,2013-03-01 03:03:00,
2013-02-28 20:08:00,33.4,14.9,30.16,SE,143,4.0,5.0,46,0.00,,---,0.00,VWS V14.00,2013-03-01 03:08:00,
2013-02-28 20:13:00,33.6,15.5,30.17,North,5,6.0,7.0,47,0.00,,---,0.00,VWS V14.00,2013-03-01 03:13:00,
2013-02-28 20:18:00,33.0,14.5,30.17,North,360,0.0,2.0,46,0.00,,---,0.00,VWS V14.00,2013-03-01 03:18:00,
2013-02-28 20:23:00,33.1,14.6,30.16,North,10,0.0,2.0,46,0.00,,---,0.00,VWS V14.00,2013-03-01 03:23:00,
2013-02-28 20:28:00,33.2,14.2,30.16,North,11,0.0,0.0,45,0.00,,---,0.00,VWS V14.00,2013-03-01 03:28:00,
2013-02-28 20:33:00,33.4,13.3,30.16,North,11,0.0,3.0,43,0.00,,---,0.00,VWS V14.00,2013-03-01 03:33:00,
2013-02-28 20:38:00,33.7,13.6,30.16,North,11,0.0,1.0,43,0.00,,---,0.00,VWS V14.00,2013-03-01 03:38:00,
2013-02-28 20:43:00,33.4,13.3,30.15,North,5,0.0,3.0,43,0.00,,---,0.00,VWS V14.00,2013-03-01 03:43:00,
2013-02-28 20:48:00,33.8,13.1,30.16,North,5,0.0,3.0,42,0.00,,---,0.00,VWS V14.00,2013-03-01 03:48:00,
2013-02-28 20:54:00,33.7,14.1,30.16,ENE,59,0.0,3.0,44,0.00,,---,0.00,VWS V14.00,2013-03-01 03:54:00,
2013-02-28 20:59:00,33.0,13.5,30.16,ENE,58,0.0,0.0,44,0.00,,---,0.00,VWS V14.00,2013-03-01 03:59:00,
2013-02-28 21:04:00,32.9,13.4,30.16,ENE,59,1.0,2.0,44,0.00,,---,0.00,VWS V14.00,2013-03-01 04:04:00,
2013-02-28 21:09:00,33.1,13.6,30.16,South,171,4.0,5.0,44,0.00,,---,0.00,VWS V14.00,2013-03-01 04:09:00,
2013-02-28 21:14:00,32.8,14.3,30.16,South,181,0.0,5.0,46,0.00,,---,0.00,VWS V14.00,2013-03-01 04:14:00,
2013-02-28 21:19:00,31.8,13.9,30.16,South,181,0.0,1.0,47,0.00,,---,0.00,VWS V14.00,2013-03-01 04:19:00,
2013-02-28 21:24:00,32.1,13.7,30.16,South,181,0.0,1.0,46,0.00,,---,0.00,VWS V14.00,2013-03-01 04:24:00,
2013-02-28 21:29:00,32.0,14.1,30.16,SSW,192,4.0,4.0,47,0.00,,---,0.00,VWS V14.00,2013-03-01 04:29:00,
2013-02-28 21:34:00,32.6,12.6,30.15,South,178,8.0,8.0,43,0.00,,---,0.00,VWS V14.00,2013-03-01 04:34:00,
2013-02-28 21:39:00,31.9,14.4,30.16,WNW,287,10.0,10.0,48,0.00,,---,0.00,VWS V14.00,2013-03-01 04:39:00,
2013-02-28 21:45:00,31.6,14.6,30.16,WSW,254,1.0,10.0,49,0.00,,---,0.00,VWS V14.00,2013-03-01 04:45:00,
2013-02-28 21:50:00,32.1,14.6,30.16,West,259,7.0,8.0,48,0.00,,---,0.00,VWS V14.00,2013-03-01 04:50:00,
2013-02-28 21:55:00,32.4,14.4,30.15,SSW,202,0.0,8.0,47,0.00,,---,0.00,VWS V14.00,2013-03-01 04:55:00,
2013-02-28 22:00:00,31.7,14.3,30.15,West,281,6.0,10.0,48,0.00,,---,0.00,VWS V14.00,2013-03-01 05:00:00,
2013-02-28 22:01:00,31.6,14.6,30.14,SW,224,6.0,10.0,49,0.00,,---,0.00,VWS V14.00,2013-03-01 05:01:00,
2013-02-28 22:02:00,31.6,14.6,30.14,SSW,196,7.0,10.0,49,0.00,,---,0.00,VWS V14.00,2013-03-01 05:02:00,
2013-02-28 22:03:00,31.7,13.8,30.14,South,183,2.0,10.0,47,0.00,,---,0.00,VWS V14.00,2013-03-01 05:03:00,
2013-02-28 22:06:00,32.3,13.4,30.14,SSW,192,2.0,3.0,45,0.00,,---,0.00,VWS V14.00,2013-03-01 05:06:00,
2013-02-28 22:11:00,32.9,13.4,30.13,SW,227,6.0,7.0,44,0.00,,---,0.00,VWS V14.00,2013-03-01 05:11:00,
2013-02-28 22:16:00,33.3,13.2,30.13,SSW,206,3.0,6.0,43,0.00,,---,0.00,VWS V14.00,2013-03-01 05:16:00,
2013-02-28 22:21:00,33.5,12.9,30.13,SSW,212,2.0,6.0,42,0.00,,---,0.00,VWS V14.00,2013-03-01 05:21:00,
2013-02-28 22:26:00,33.7,12.5,30.13,SSW,207,3.0,4.0,41,0.00,,---,0.00,VWS V14.00,2013-03-01 05:26:00,
2013-02-28 22:31:00,33.7,12.5,30.13,SW,230,5.0,5.0,41,0.00,,---,0.00,VWS V14.00,2013-03-01 05:31:00,
2013-02-28 22:36:00,34.5,11.5,30.14,SW,217,5.0,6.0,38,0.00,,---,0.00,VWS V14.00,2013-03-01 05:36:00,
2013-02-28 22:42:00,33.0,13.0,30.14,NW,318,4.0,7.0,43,0.00,,---,0.00,VWS V14.00,2013-03-01 05:42:00,
2013-02-28 22:47:00,31.7,12.3,30.13,WNW,302,0.0,2.0,44,0.00,,---,0.00,VWS V14.00,2013-03-01 05:47:00,
2013-02-28 22:52:00,32.5,12.0,30.13,WNW,302,1.0,4.0,42,0.00,,---,0.00,VWS V14.00,2013-03-01 05:52:00,
2013-02-28 22:57:00,33.0,13.0,30.13,WNW,302,2.0,3.0,43,0.00,,---,0.00,VWS V14.00,2013-03-01 05:57:00,
2013-02-28 23:02:00,33.3,12.7,30.12,WNW,302,0.0,4.0,42,0.00,,---,0.00,VWS V14.00,2013-03-01 06:02:00,
2013-02-28 23:07:00,33.7,10.8,30.12,WNW,302,0.0,0.0,38,0.00,,---,0.00,VWS V14.00,2013-03-01 06:07:00,
2013-02-28 23:12:00,34.1,10.0,30.12,WNW,302,0.0,1.0,36,0.00,,---,0.00,VWS V14.00,2013-03-01 06:12:00,
2013-02-28 23:17:00,34.6,9.8,30.13,NW,323,3.0,3.0,35,0.00,,---,0.00,VWS V14.00,2013-03-01 06:17:00,
2013-02-28 23:23:00,34.5,9.7,30.13,NW,312,0.0,7.0,35,0.00,,---,0.00,VWS V14.00,2013-03-01 06:23:00,
2013-02-28 23:28:00,34.7,8.6,30.13,North,360,8.0,9.0,33,0.00,,---,0.00,VWS V14.00,2013-03-01 06:28:00,
2013-02-28 23:33:00,35.3,9.1,30.13,North,5,7.0,12.0,33,0.00,,---,0.00,VWS V14.00,2013-03-01 06:33:00,
2013-02-28 23:38:00,35.8,8.8,30.13,North,355,11.0,11.0,32,0.00,,---,0.00,VWS V14.00,2013-03-01 06:38:00,
2013-02-28 23:43:00,36.6,8.8,30.13,NNE,13,7.0,13.0,31,0.00,,---,0.00,VWS V14.00,2013-03-01 06:43:00,
2013-02-28 23:48:00,36.6,8.1,30.13,NNE,17,6.0,11.0,30,0.00,,---,0.00,VWS V14.00,2013-03-01 06:48:00,
2013-02-28 23:53:00,36.4,8.7,30.14,NNE,28,8.0,11.0,31,0.00,,---,0.00,VWS V14.00,2013-03-01 06:53:00,
2013-02-28 23:58:00,36.4,7.9,30.14,North,11,5.0,10.0,30,0.00,,---,0.00,VWS V14.00,2013-03-01 06:58:00,